Find Local Weather

World > North America > United States > California

Oakland, California Regional Weather

Lat: 37.77N, Lon: 122.22W
Wx Zone: CAZ508
Feedback
Expires:201807231400;;927198
ASUS46 KSTO 231315
RWRCA 

NORTHERN AND CENTRAL CA REGIONAL WEATHER ROUNDUP
NATIONAL WEATHER SERVICE SACRAMENTO CA 
600 AM PDT MON JUL 23 2018

NOTE: FAIR INDICATES FEW OR NO CLOUDS BELOW 12,000 FEET WITH NO
SIGNIFICANT WEATHER AND/OR OBSTRUCTIONS TO VISIBILITY.


CAZ006-505>513-231400-
BAY AREA
  
CITY           SKY/WX    TMP DP  RH WIND       PRES   REMARKS
SANTA ROSA     CLOUDY    56  55  97 S3        30.06S                  
SAN RAFAEL     N/A       59  MM  MM MISG
NAPA           CLEAR     57  54  89 W7        30.07R                  
CONCORD        CLEAR     63  54  72 SW8       30.05R                  
OAKLAND CITY   N/A       MM  MM  MM MISG
OAKLAND        MOCLDY    58  56  93 W7        30.09R FOG              
SAN FRAN CITY  N/A       57  MM  93 MISG
SAN FRAN ARPT  PTCLDY    56  54  93 W10       30.08R                  
LIVERMORE      CLEAR     59  54  83 NW7       30.06R                  
HAYWARD        CLOUDY    61  55  81 N7        30.08R                  
REDWOOD CITY   N/A       61  MM  83 MISG
MOFFETT ARPT   CLOUDY    59  58  96 N9        30.08S                  
SAN JOSE ARPT  MOCLDY    63  58  83 NW6       30.07S                  
$$

SKY/WX - Weather  TMP - Temperature  DP - Dewpoint  RH - Relative Humidity
WIND - Wind Direction/Speed PRES - Barometric Pressure